Kilgore, Kentucky
Current Conditions -  °F | °C
As of 6:51 PM on Wednesday 22 Oct 2014 (Local Time) from KHTS Reporting Station
Overcast Overcast  
Wind Chill: 50°   Ceiling: 2900
Heat Index: 50°   Visibility: 10mi
Dew Point: 43°   Wind: 5mph
Humidity: 77%   Direction: 350°N
Pressure: 30.23"   Gusts: NA
Location:  38.2878°N, 82.7547°W
Report Text: KHTS 222251Z 35004KT 10SM OVC029 10/06 A3023 RMK AO2 SLP239 T01000061
Loading
Personal Weather Stations






























Interactive Weather Map
Tropical Storm Tracking
New forecast layout! Learn more

10-Day Weather Forecast

Advertisements
Track Severe Weather on mobile